Zurück zum Katalog

CZ-2D DEB

AktivPO
NORAD 44606·DEBRIS·🇨🇳 China

Gestartet Nov 11, 2016 von Jiuquan Satellite Launch Center

Loading…

Nächste Überflüge (nächste 24 Stunden)

TLE

AktuellSource: Space-Track

Epoche: Sep 12, 2026, 00:08 UTC

1 44606U 16068F   26255.00603569  .00000236  00000-0  17341-3 0  9990
2 44606  98.4225 324.3067 0222390 324.9514  33.7182 13.93041183498528

Verfolge CZ-2D DEB in Echtzeit mit AllMySat

Download on the App Store